Simultaneous Nadir Overpasses (SNOs) Predictions

Prediction of SNOs between AURA and NPP Satellite Orbit:

Table of predicted SNOs for the next 14.0 days since TLE Epoch: 5/21/2022
Index Date (AURA) Time (AURA) Lat,Lon (AURA) SZA (AURA ) Date (NPP) Time (NPP) Lat,Lon (NPP) SZA (NPP ) Distance(km) Time Diff (sec)
1 05/22/2022 19:58:22 79.42, 136.67 72.21 05/22/2022 19:58:10 79.41, 136.59 72.23 1.64 12
2 05/22/2022 20:47:41 -79.72, -53.53 108.26 05/22/2022 20:48:46 -79.72, -53.48 108.31 0.90 65
3 05/25/2022 11:25:25 -79.31, 84.25 108.12 05/25/2022 11:24:21 -79.32, 84.30 108.08 1.09 64
4 05/25/2022 12:14:46 79.50,-106.88 71.61 05/25/2022 12:15:00 79.49,-106.99 71.62 2.24 14
5 05/28/2022 03:41:48 -79.36,-159.54 108.62 05/28/2022 03:41:11 -79.36,-159.58 108.58 1.02 37
6 05/28/2022 04:31:06 79.65, 10.13 70.95 05/28/2022 04:31:46 79.66, 10.23 70.90 2.27 40
7 05/30/2022 19:58:09 -79.49, -42.79 109.19 05/30/2022 19:57:59 -79.50, -42.70 109.20 2.01 10
8 05/30/2022 20:47:29 79.70, 126.36 70.49 05/30/2022 20:48:37 79.69, 126.32 70.45 0.97 68
9 06/02/2022 11:25:09 79.34, -95.55 70.70 06/02/2022 11:24:10 79.34, -95.49 70.73 1.32 59



Historial Predications of SNOs between AURA and NPP
